"startDT [UTC]","vpos","CH4 [ppm]","stdev(CH4) [ppm]","CO2 [ppm]","stdev(CO2) [ppm]","H2O_reported [%]","stdev(H2O_reported)","CavityPressure [torr]","CavityTemp [C]","OutletValve","CH4_dry [ppm]","CO2_dry [ppm]","DasTemp [C]","EtalonTemp [C]","WarmBoxTemp [C]","MPVPosition","T_ECpre [C]","T_EC1 [C]","T_EC2 [C]","p_inlet [hPa]","p_in [hPa]","p_out [hPa]","T_inlet [C]","RH_inlet [%]","dwpt_inlet [C]","T_vent [C]","RH_vent [%]","dwpt_vent [C]","flow_vent [l min-1]","flow_inlet [l min-1]","dwpt_sample [C]","T_room [C]"
2016-11-23 00:00:00,0.0,1.95060,0.00228,406.481,0.036,0.0802,0.0019,139.998,45.000,31713.91672,1.95233,406.873,36.876,45.071,45.000,0.00,0.07,-272.87,-272.91,-8,534,-946,22.2,2.5,-27.1,22.6,2.5,-26.7,0.46,1.88,-13.7,28.7
2016-11-23 00:01:00,0.0,1.94832,0.00042,406.516,0.028,0.0803,0.0015,140.000,45.000,31715.79781,1.94984,406.909,36.879,45.071,45.000,0.00,0.07,-272.88,-272.91,-8,535,-946,22.2,2.5,-27.1,22.6,2.5,-26.6,0.46,2.02,-13.7,28.7
2016-11-23 00:02:00,0.0,1.95070,0.00146,406.501,0.026,0.0802,0.0013,140.000,45.000,31716.89323,1.95213,406.894,36.875,45.071,45.000,0.00,0.07,-272.88,-272.93,-8,535,-946,22.2,2.5,-27.1,22.6,2.5,-26.6,0.46,1.75,-13.7,28.7
2016-11-23 00:03:00,0.0,1.95042,0.00090,406.509,0.034,0.0792,0.0022,139.999,45.000,31716.27051,1.95203,406.897,36.875,45.071,45.000,0.00,0.07,-272.88,-272.92,-8,535,-946,22.2,2.5,-27.2,22.6,2.5,-26.7,0.46,2.10,-13.7,28.7
2016-11-23 00:04:00,0.0,1.95037,0.00070,406.480,0.030,0.0798,0.0012,139.999,45.000,31715.51375,1.95184,406.871,36.875,45.071,45.000,0.00,0.07,-272.87,-272.91,-8,534,-946,22.2,2.5,-27.1,22.6,2.5,-26.7,0.46,1.73,-13.7,28.7
2016-11-23 00:05:00,0.0,1.95066,0.00045,406.465,0.032,0.0799,0.0021,139.999,45.000,31717.04696,1.95223,406.854,36.872,45.071,45.000,0.00,0.07,-272.88,-272.92,-8,535,-946,22.2,2.5,-27.0,22.6,2.5,-26.7,0.46,2.05,-13.7,28.7
2016-11-23 00:06:00,0.0,1.95021,0.00054,406.468,0.042,0.0802,0.0014,140.000,45.000,31718.34050,1.95176,406.861,36.858,45.071,45.000,0.00,0.07,-272.88,-272.91,-8,534,-946,22.2,2.5,-27.1,22.6,2.5,-26.6,0.45,1.83,-13.7,28.7
2016-11-23 00:07:00,0.0,1.94950,0.00028,406.514,0.037,0.0810,0.0015,140.002,45.000,31717.61636,1.95108,406.909,36.815,45.071,45.000,0.00,0.07,-272.87,-272.91,-8,535,-946,22.2,2.5,-27.0,22.6,2.5,-26.6,0.46,1.92,-13.7,28.7
2016-11-23 00:08:00,0.0,1.94960,0.00050,406.475,0.033,0.0814,0.0021,140.001,45.000,31717.64838,1.95113,406.873,36.806,45.071,45.001,0.00,0.07,-272.89,-272.92,-8,534,-946,22.2,2.5,-27.1,22.6,2.5,-26.6,0.45,1.99,-13.7,28.7
2016-11-23 00:09:00,0.0,1.94868,0.00107,406.479,0.031,0.0798,0.0016,140.000,45.000,31717.59609,1.95024,406.869,36.767,45.072,45.001,0.00,0.07,-272.88,-272.92,-8,535,-946,22.2,2.5,-27.2,22.6,2.5,-26.6,0.46,1.77,-13.7,28.7
2016-11-23 00:10:00,0.0,1.94910,0.00044,406.475,0.030,0.0785,0.0013,140.002,45.000,31717.05699,1.95062,406.859,36.750,45.072,45.001,0.00,0.07,-272.88,-272.90,-8,534,-946,22.2,2.4,-27.3,22.6,2.5,-26.8,0.46,2.09,-13.7,28.7
2016-11-23 00:11:00,0.0,1.94843,0.00041,406.458,0.024,0.0796,0.0015,139.999,45.000,31716.33402,1.94999,406.848,36.750,45.072,45.001,0.00,0.07,-272.88,-272.91,-8,535,-946,22.2,2.5,-27.2,22.6,2.5,-26.8,0.46,1.72,-13.7,28.7
2016-11-23 00:12:00,0.0,1.94855,0.00057,406.409,0.036,0.0799,0.0018,140.001,45.000,31715.47144,1.95007,406.800,36.771,45.072,45.001,0.00,0.07,-272.89,-272.92,-9,535,-946,22.2,2.5,-27.2,22.6,2.5,-26.8,0.46,2.08,-13.7,28.7
2016-11-23 00:13:00,0.0,1.94836,0.00050,406.413,0.027,0.0795,0.0016,139.997,45.000,31716.00461,1.94992,406.802,36.809,45.071,45.000,0.00,0.07,-272.88,-272.91,-8,535,-946,22.2,2.5,-27.2,22.6,2.5,-26.7,0.46,1.80,-13.7,28.7
2016-11-23 00:14:00,0.0,1.94807,0.00044,406.390,0.031,0.0800,0.0016,139.999,45.000,31714.96300,1.94961,406.781,36.812,45.071,45.000,0.00,0.07,-272.87,-272.91,-9,535,-946,22.2,2.5,-27.2,22.6,2.5,-26.7,0.46,1.95,-13.7,28.7
2016-11-23 00:15:00,0.0,1.94798,0.00025,406.421,0.030,0.0807,0.0014,139.998,45.000,31715.41503,1.94949,406.815,36.815,45.071,45.000,0.00,0.07,-272.88,-272.92,-8,535,-946,22.2,2.5,-27.0,22.6,2.5,-26.6,0.45,1.96,-13.7,28.7
2016-11-23 00:16:00,0.0,1.94756,0.00040,406.392,0.034,0.0805,0.0011,140.002,45.000,31715.93417,1.94915,406.786,36.824,45.070,44.999,0.00,0.07,-272.87,-272.92,-9,535,-946,22.2,2.5,-27.1,22.6,2.5,-26.6,0.46,1.79,-13.7,28.7
2016-11-23 00:17:00,0.0,1.94719,0.00048,406.385,0.034,0.0806,0.0020,140.000,45.000,31716.32157,1.94871,406.778,36.856,45.070,44.999,0.00,0.07,-272.88,-272.90,-7,535,-946,22.2,2.5,-27.0,22.6,2.5,-26.7,0.46,2.08,-13.7,28.7
2016-11-23 00:18:00,0.0,1.94862,0.00038,406.419,0.027,0.0805,0.0019,140.000,45.000,31714.14105,1.95013,406.813,36.875,45.070,44.999,0.00,0.07,-272.88,-272.92,-9,535,-946,22.2,2.5,-27.0,22.6,2.6,-26.5,0.46,1.73,-13.7,28.7
2016-11-23 00:19:00,0.0,1.94848,0.00033,406.430,0.034,0.0801,0.0017,139.997,45.000,31712.52528,1.95004,406.822,36.873,45.070,44.999,0.00,0.07,-272.89,-272.92,-7,535,-946,22.2,2.5,-27.0,22.6,2.5,-26.6,0.46,2.08,-13.7,28.7
2016-11-23 00:20:00,0.0,1.94842,0.00057,406.437,0.026,0.0803,0.0018,139.999,45.000,31713.33979,1.94995,406.829,36.839,45.070,44.999,0.00,0.07,-272.87,-272.91,-9,534,-946,22.2,2.5,-27.0,22.6,2.5,-26.7,0.46,1.79,-13.7,28.7
2016-11-23 00:21:00,0.0,1.94891,0.00031,406.429,0.024,0.0801,0.0019,140.000,45.000,31711.45718,1.95044,406.820,36.819,45.071,45.000,0.00,0.07,-272.88,-272.92,-7,535,-946,22.2,2.5,-27.2,22.6,2.5,-26.6,0.46,1.97,-13.7,28.8
"startDT [UTC]","vpos","CH4 [ppm]","stdev(CH4) [ppm]","CO2 [ppm]","stdev(CO2) [ppm]","H2O_reported [%]","stdev(H2O_reported)","CavityPressure [torr]","CavityTemp [C]","OutletValve","CH4_dry [ppm]","CO2_dry [ppm]","DasTemp [C]","EtalonTemp [C]","WarmBoxTemp [C]","MPVPosition","T_ECpre [C]","T_EC1 [C]","T_EC2 [C]","p_inlet [hPa]","p_in [hPa]","p_out [hPa]","T_inlet [C]","RH_inlet [%]","dwpt_inlet [C]","T_vent [C]","RH_vent [%]","dwpt_vent [C]","flow_vent [l min-1]","flow_inlet [l min-1]","dwpt_sample [C]","T_room [C]"
2016-11-23 00:24:00,0.0,1.94974,0.00049,406.418,0.028,0.0797,0.0016,140.000,45.000,31714.33327,1.95127,406.807,36.865,45.071,45.000,0.00,0.07,-272.88,-272.91,-9,534,-946,22.1,2.4,-27.3,22.6,2.5,-26.8,0.46,2.08,-13.7,28.7
2016-11-23 00:25:00,0.0,1.94770,0.00104,406.351,0.041,0.0802,0.0016,140.001,45.000,31715.20767,1.94934,406.745,36.875,45.071,45.000,0.00,0.07,-272.87,-272.91,-7,535,-946,22.1,2.5,-27.2,22.6,2.5,-26.7,0.46,1.73,-13.7,28.7
2016-11-23 00:26:00,0.0,1.94802,0.00075,406.362,0.036,0.0802,0.0017,140.004,45.000,31716.93229,1.94951,406.752,36.883,45.071,45.000,0.00,0.07,-272.88,-272.91,-9,534,-946,22.2,2.5,-27.1,22.6,2.5,-26.7,0.46,2.09,-13.7,28.7
2016-11-23 00:27:00,0.0,1.94816,0.00069,406.379,0.029,0.0808,0.0022,140.000,45.000,31714.92599,1.94973,406.776,36.914,45.071,45.000,0.00,0.07,-272.88,-272.92,-7,535,-946,22.2,2.5,-27.0,22.6,2.5,-26.6,0.45,1.77,-13.7,28.7
2016-11-23 00:28:00,0.0,1.94632,0.00076,406.320,0.028,0.0815,0.0014,139.999,45.000,31716.89528,1.94793,406.719,36.920,45.071,45.000,0.00,0.07,-272.87,-272.91,-9,535,-946,22.2,2.5,-26.9,22.6,2.5,-26.6,0.46,1.99,-13.6,28.7
2016-11-23 00:29:00,0.0,1.94559,0.00042,406.270,0.032,0.0818,0.0017,140.000,45.000,31716.14432,1.94717,406.671,36.915,45.070,44.999,0.00,0.07,-272.88,-272.91,-7,535,-946,22.2,2.5,-26.9,22.6,2.6,-26.5,0.46,1.91,-13.7,28.7
2016-11-23 00:30:00,0.0,1.94562,0.00035,406.284,0.026,0.0808,0.0020,140.005,45.000,31715.88066,1.94718,406.678,36.882,45.070,44.999,0.00,0.07,-272.87,-272.93,-9,535,-946,22.2,2.5,-27.0,22.6,2.6,-26.5,0.46,1.83,-13.6,28.7
2016-11-23 00:31:00,0.0,1.94562,0.00035,406.262,0.025,0.0818,0.0018,140.001,45.000,31712.43539,1.94720,406.663,36.870,45.071,45.000,0.00,0.07,-272.88,-272.91,-7,535,-946,22.2,2.5,-26.9,22.6,2.6,-26.5,0.46,2.05,-13.6,28.7
2016-11-23 00:32:00,0.0,1.94602,0.00070,406.311,0.045,0.0826,0.0015,140.000,45.000,31712.83517,1.94757,406.713,36.838,45.071,45.000,0.00,0.07,-272.87,-272.91,-9,535,-946,22.2,2.6,-26.8,22.6,2.6,-26.4,0.46,1.73,-13.6,28.7
2016-11-23 00:33:00,0.0,1.94732,0.00035,406.387,0.037,0.0799,0.0016,140.001,45.000,31712.81114,1.94881,406.777,36.827,45.071,45.000,0.00,0.07,-272.89,-272.92,-7,534,-946,22.2,2.5,-27.0,22.6,2.6,-26.5,0.46,2.10,-13.6,28.7
2016-11-23 00:34:00,0.0,1.94724,0.00055,406.372,0.040,0.0796,0.0020,140.001,45.000,31716.99440,1.94880,406.763,36.859,45.071,45.000,0.00,0.07,-272.88,-272.91,-9,534,-946,22.2,2.5,-27.1,22.6,2.5,-26.7,0.46,1.75,-13.6,28.7
2016-11-23 00:35:00,0.0,1.94666,0.00049,406.311,0.034,0.0788,0.0018,139.997,45.000,31716.05302,1.94818,406.697,36.869,45.071,45.000,0.00,0.07,-272.87,-272.91,-7,534,-946,22.1,2.4,-27.3,22.6,2.5,-26.7,0.46,2.03,-13.6,28.7
2016-11-23 00:36:00,0.0,1.94603,0.00052,406.302,0.034,0.0780,0.0019,139.998,45.000,31714.76309,1.94752,406.683,36.871,45.071,45.000,0.00,0.07,-272.88,-272.92,-9,535,-946,22.1,2.4,-27.4,22.6,2.5,-26.8,0.45,1.87,-13.6,28.7
2016-11-23 00:37:00,0.0,1.94600,0.00045,406.317,0.021,0.0789,0.0015,140.002,45.000,31713.89902,1.94754,406.703,36.878,45.071,45.000,0.00,0.07,-272.88,-272.92,-7,534,-946,22.1,2.4,-27.3,22.6,2.5,-26.9,0.46,1.87,-13.6,28.7
2016-11-23 00:38:00,0.0,1.94559,0.00036,406.255,0.036,0.0782,0.0011,139.998,45.000,31711.13256,1.94709,406.636,36.884,45.071,45.000,0.00,0.07,-272.88,-272.90,-9,535,-946,22.1,2.4,-27.3,22.6,2.5,-26.7,0.46,2.03,-13.6,28.7
2016-11-23 00:39:00,0.0,1.94600,0.00049,406.316,0.039,0.0797,0.0023,140.002,45.000,31712.19807,1.94749,406.707,36.877,45.071,45.000,0.00,0.07,-272.87,-272.91,-7,534,-946,22.1,2.5,-27.1,22.6,2.5,-26.7,0.46,1.74,-13.6,28.6
2016-11-23 00:40:00,0.0,1.94561,0.00070,406.267,0.028,0.0810,0.0017,140.000,45.000,31713.82806,1.94722,406.663,36.873,45.071,45.000,0.00,0.07,-272.88,-272.92,-9,535,-946,22.1,2.5,-26.9,22.6,2.5,-26.6,0.46,2.10,-13.7,28.7
2016-11-23 00:41:00,0.0,1.94537,0.00040,406.248,0.039,0.0819,0.0016,140.001,45.000,31712.79783,1.94695,406.649,36.864,45.071,45.000,0.00,0.07,-272.87,-272.91,-7,534,-946,22.1,2.5,-26.9,22.6,2.6,-26.3,0.46,1.74,-13.7,28.7
2016-11-23 00:42:00,0.0,1.94549,0.00037,406.294,0.032,0.0821,0.0019,140.001,45.000,31714.77625,1.94703,406.694,36.835,45.071,45.000,0.00,0.07,-272.87,-272.91,-9,535,-946,22.1,2.5,-26.9,22.6,2.6,-26.4,0.46,2.05,-13.6,28.7
2016-11-23 00:43:00,0.0,1.94570,0.00041,406.332,0.021,0.0820,0.0020,139.998,45.000,31713.28411,1.94728,406.733,36.827,45.071,45.000,0.00,0.07,-272.88,-272.92,-7,534,-946,22.2,2.6,-26.8,22.6,2.6,-26.4,0.45,1.84,-13.6,28.7
2016-11-23 00:44:00,0.0,1.94560,0.00038,406.336,0.032,0.0813,0.0015,139.999,45.000,31712.03734,1.94717,406.735,36.816,45.071,45.000,0.00,0.07,-272.88,-272.92,-9,535,-946,22.2,2.5,-27.0,22.6,2.6,-26.5,0.46,1.91,-13.6,28.7
2016-11-23 00:45:00,0.0,1.94518,0.00037,406.345,0.034,0.0795,0.0017,139.999,45.000,31712.81275,1.94671,406.733,36.787,45.071,45.000,0.00,0.07,-272.88,-272.91,-7,534,-946,22.2,2.5,-27.1,22.6,2.5,-26.6,0.46,1.99,-13.6,28.7
2016-11-23 00:46:00,0.0,1.94506,0.00039,406.278,0.058,0.0787,0.0018,139.998,45.000,31712.36739,1.94655,406.664,36.739,45.071,45.000,0.00,0.07,-272.87,-272.92,-9,535,-946,22.1,2.5,-27.2,22.6,2.5,-26.7,0.46,1.77,-13.6,28.7
2016-11-23 00:47:00,0.0,1.94482,0.00029,406.272,0.031,0.0782,0.0019,140.000,45.000,31711.90268,1.94633,406.653,36.696,45.071,45.001,0.00,0.07,-272.89,-272.92,-7,534,-946,22.1,2.4,-27.3,22.6,2.5,-26.7,0.46,2.10,-13.6,28.7
2016-11-23 00:48:00,0.0,1.94476,0.00047,406.249,0.037,0.0788,0.0013,139.999,45.000,31713.73244,1.94630,406.634,36.688,45.072,45.001,0.00,0.07,-272.87,-272.91,-9,535,-946,22.1,2.4,-27.3,22.5,2.5,-26.8,0.46,1.73,-13.6,28.7
2016-11-23 00:49:00,0.0,1.94476,0.00038,406.260,0.041,0.0797,0.0018,140.000,45.000,31712.68933,1.94627,406.650,36.693,45.072,45.001,0.00,0.07,-272.88,-272.91,-7,534,-946,22.1,2.5,-27.2,22.6,2.5,-26.8,0.46,2.07,-13.6,28.7
2016-11-23 00:50:00,0.0,1.94461,0.00037,406.238,0.029,0.0800,0.0013,140.001,45.000,31713.24858,1.94613,406.629,36.714,45.072,45.001,0.00,0.07,-272.89,-272.91,-9,535,-946,22.1,2.5,-27.1,22.5,2.5,-26.7,0.45,1.81,-13.6,28.6
2016-11-23 00:51:00,0.0,1.94483,0.00042,406.211,0.026,0.0811,0.0012,140.000,45.000,31712.28869,1.94640,406.608,36.755,45.072,45.000,0.00,0.07,-272.87,-272.92,-8,534,-946,22.1,2.5,-27.1,22.6,2.5,-26.6,0.46,1.94,-13.6,28.7
2016-11-23 00:52:00,0.0,1.94472,0.00045,406.205,0.034,0.0810,0.0021,140.002,45.000,31713.51173,1.94628,406.599,36.803,45.071,45.000,0.00,0.07,-272.88,-272.91,-8,535,-946,22.1,2.5,-27.0,22.5,2.6,-26.5,0.46,1.96,-13.6,28.7
2016-11-23 00:53:00,0.0,1.94416,0.00039,406.188,0.034,0.0823,0.0018,140.002,45.000,31711.92669,1.94572,406.589,36.813,45.071,44.999,0.00,0.07,-272.87,-272.92,-8,534,-946,22.1,2.5,-26.9,22.6,2.6,-26.4,0.46,1.79,-13.6,28.7
2016-11-23 00:54:00,0.0,1.94407,0.00038,406.173,0.042,0.0827,0.0018,139.999,45.000,31712.08154,1.94566,406.579,36.814,45.070,44.999,0.00,0.07,-272.89,-272.91,-8,535,-946,22.1,2.6,-26.8,22.6,2.6,-26.3,0.46,2.08,-13.5,28.7
2016-11-23 00:55:00,0.0,1.94417,0.00034,406.203,0.046,0.0824,0.0014,139.998,45.000,31710.22051,1.94577,406.606,36.813,45.070,44.999,0.00,0.07,-272.87,-272.91,-8,534,-946,22.2,2.6,-26.7,22.6,2.6,-26.3,0.46,1.72,-13.5,28.7
2016-11-23 00:56:00,0.0,1.94379,0.00039,406.212,0.036,0.0827,0.0016,139.998,45.000,31711.51388,1.94537,406.617,36.807,45.070,44.999,0.00,0.07,-272.88,-272.91,-8,535,-946,22.2,2.6,-26.8,22.6,2.6,-26.3,0.46,2.09,-13.5,28.7
2016-11-23 00:57:00,0.0,1.94425,0.00042,406.274,0.048,0.0812,0.0018,140.001,45.000,31711.95985,1.94580,406.668,36.798,45.070,44.999,0.00,0.07,-272.88,-272.92,-8,534,-946,22.2,2.5,-27.0,22.6,2.6,-26.4,0.45,1.78,-13.5,28.7
2016-11-23 00:58:00,0.0,1.94430,0.00035,406.266,0.069,0.0798,0.0017,140.001,45.000,31712.94016,1.94584,406.659,36.802,45.071,45.000,0.00,0.07,-272.87,-272.92,-8,535,-946,22.2,2.5,-27.1,22.6,2.5,-26.6,0.46,1.96,-13.4,28.7
2016-11-23 00:59:00,0.0,1.94431,0.00049,406.227,0.027,0.0770,0.0024,140.001,45.000,31712.87245,1.94576,406.604,36.787,45.071,45.000,0.00,0.07,-272.88,-272.91,-8,534,-946,22.2,2.4,-27.6,22.6,2.5,-26.8,0.45,1.93,-13.4,28.7
2016-11-23 01:00:00,0.0,1.94426,0.00039,406.227,0.040,0.0758,0.0018,139.998,45.000,31711.53379,1.94572,406.598,36.751,45.071,45.000,0.00,0.07,-272.88,-272.92,-8,535,-946,22.2,2.4,-27.6,22.6,2.4,-27.1,0.45,1.80,-13.4,28.7
2016-11-23 01:01:00,0.0,1.94440,0.00071,406.169,0.046,0.0776,0.0015,140.001,45.000,31714.86175,1.94589,406.547,36.752,45.071,45.000,0.00,0.07,-272.88,-272.92,-8,534,-946,22.2,2.4,-27.5,22.6,2.4,-27.0,0.45,2.06,-13.4,28.7
2016-11-23 01:02:00,0.0,1.94424,0.00043,406.192,0.033,0.0770,0.0018,139.999,45.000,31712.67003,1.94569,406.570,36.790,45.071,45.000,0.00,0.07,-272.87,-272.91,-8,535,-946,22.2,2.4,-27.5,22.6,2.4,-27.0,0.45,1.72,-13.4,28.7
2016-11-23 01:03:00,0.0,1.94446,0.00035,406.186,0.033,0.0789,0.0019,139.999,45.000,31711.21135,1.94599,406.572,36.821,45.071,45.000,0.00,0.07,-272.88,-272.91,-8,535,-946,22.2,2.4,-27.3,22.6,2.5,-26.9,0.45,2.08,-13.4,28.7
2016-11-23 01:04:00,0.0,1.94418,0.00040,406.173,0.041,0.0791,0.0019,139.999,45.000,31713.88636,1.94571,406.558,36.868,45.071,45.000,0.00,0.07,-272.88,-272.91,-8,535,-946,22.2,2.5,-27.2,22.6,2.5,-26.8,0.45,1.77,-13.4,28.7
2016-11-23 01:05:00,0.0,1.94452,0.00027,406.125,0.032,0.0800,0.0015,140.000,45.000,31711.14070,1.94603,406.517,36.877,45.071,45.000,0.00,0.07,-272.88,-272.91,-8,535,-946,22.2,2.5,-27.1,22.6,2.5,-26.7,0.45,1.97,-13.4,28.7
2016-11-23 01:06:00,0.0,1.94466,0.00037,406.150,0.032,0.0814,0.0010,139.999,45.000,31713.82983,1.94622,406.547,36.878,45.070,44.999,0.00,0.07,-272.88,-272.91,-8,535,-946,22.2,2.5,-26.9,22.6,2.5,-26.5,0.45,1.91,-13.4,28.7
2016-11-23 01:07:00,0.0,1.94477,0.00037,406.135,0.034,0.0817,0.0024,140.000,45.000,31713.57845,1.94634,406.534,36.877,45.070,44.999,0.00,0.07,-272.87,-272.92,-8,535,-946,22.2,2.5,-27.0,22.6,2.6,-26.4,0.45,1.80,-13.4,28.7
2016-11-23 01:08:00,0.0,1.94515,0.00056,406.164,0.042,0.0795,0.0016,139.998,45.000,31714.19258,1.94661,406.551,36.912,45.070,45.000,0.00,0.07,-272.88,-272.91,-7,535,-946,22.2,2.5,-27.1,22.6,2.5,-26.6,0.45,2.05,-13.4,28.7
2016-11-23 01:09:00,0.0,1.94576,0.00061,406.219,0.044,0.0791,0.0017,139.998,45.000,31713.32906,1.94730,406.607,36.938,45.071,45.000,0.00,0.07,-272.87,-272.91,-9,535,-946,22.2,2.4,-27.2,22.6,2.5,-26.6,0.45,1.71,-13.4,28.7
2016-11-23 01:10:00,0.0,1.94575,0.00041,406.222,0.043,0.0794,0.0016,140.000,45.000,31714.42299,1.94725,406.610,36.933,45.070,45.000,0.00,0.07,-272.89,-272.92,-7,535,-946,22.2,2.5,-27.2,22.6,2.5,-26.7,0.45,2.07,-13.4,28.7
2016-11-23 01:11:00,0.0,1.94620,0.00063,406.269,0.043,0.0791,0.0017,140.000,45.000,31714.58014,1.94771,406.655,36.921,45.071,45.000,0.00,0.07,-272.88,-272.92,-9,535,-946,22.2,2.5,-27.1,22.6,2.5,-26.7,0.44,1.76,-13.4,28.7
2016-11-23 01:12:00,0.0,1.94634,0.00059,406.266,0.040,0.0788,0.0017,140.001,45.000,31715.79215,1.94788,406.651,36.880,45.071,45.000,0.00,0.07,-272.87,-272.91,-7,535,-946,22.2,2.4,-27.3,22.6,2.5,-26.7,0.45,1.96,-13.4,28.7
2016-11-23 01:13:00,0.0,1.94686,0.00091,406.295,0.063,0.0773,0.0011,139.998,45.000,31715.82431,1.94825,406.670,36.875,45.071,45.000,0.00,0.07,-272.88,-272.91,-9,535,-946,22.2,2.4,-27.4,22.6,2.5,-26.8,0.44,1.90,-13.4,28.7
2016-11-23 01:14:00,0.0,1.94851,0.00103,406.360,0.053,0.0777,0.0014,140.000,45.000,31716.90886,1.95002,406.742,36.875,45.071,45.000,0.00,0.07,-272.88,-272.92,-7,535,-946,22.2,2.4,-27.5,22.6,2.4,-27.0,0.45,1.81,-13.4,28.7
2016-11-23 01:15:00,0.0,1.94827,0.00060,406.372,0.048,0.0772,0.0014,140.001,45.000,31717.45416,1.94973,406.747,36.875,45.071,45.001,0.00,0.07,-272.88,-272.91,-9,535,-946,22.3,2.4,-27.5,22.6,2.4,-27.0,0.45,2.05,-13.4,28.7
2016-11-23 01:16:00,0.0,1.94720,0.00077,406.347,0.042,0.0757,0.0015,140.000,45.000,31714.33776,1.94871,406.719,36.881,45.071,45.000,0.00,0.07,-272.88,-272.91,-7,535,-946,22.2,2.3,-27.7,22.6,2.4,-27.1,0.45,1.71,-13.4,28.7
2016-11-23 01:17:00,0.0,1.94704,0.00043,406.290,0.038,0.0738,0.0017,139.999,45.000,31714.94251,1.94845,406.651,36.919,45.071,45.000,0.00,0.07,-272.89,-272.92,-9,535,-946,22.2,2.3,-28.0,22.6,2.4,-27.3,0.45,2.08,-13.4,28.7
2016-11-23 01:18:00,0.0,1.94764,0.00062,406.298,0.035,0.0755,0.0014,139.998,45.000,31714.91671,1.94903,406.666,36.926,45.071,45.000,0.00,0.30,-271.03,-272.72,-7,535,-946,22.3,2.3,-27.8,22.6,2.4,-27.3,0.58,1.82,-18.7,28.7
2016-11-23 01:19:00,0.0,1.94718,0.00050,406.295,0.033,0.0775,0.0015,140.000,45.000,31716.49686,1.94870,406.674,36.927,45.071,45.000,0.00,0.07,-272.87,-272.91,-9,535,-946,22.2,2.4,-27.4,22.6,2.4,-27.0,0.45,1.96,-13.4,28.7
2016-11-23 01:20:00,0.0,1.94712,0.00052,406.258,0.033,0.0783,0.0019,140.000,45.000,31716.33644,1.94864,406.643,36.940,45.071,45.000,0.00,0.07,-272.88,-272.91,-7,535,-946,22.2,2.4,-27.3,22.6,2.4,-27.0,0.44,1.91,-13.4,28.7
2016-11-23 01:21:00,0.0,1.94753,0.00072,406.268,0.041,0.0783,0.0014,139.997,45.000,31716.47900,1.94901,406.650,36.941,45.071,45.000,0.00,0.07,-272.88,-272.92,-9,535,-946,22.2,2.4,-27.5,22.6,2.4,-27.0,0.45,1.81,-13.3,28.7
2016-11-23 01:22:00,0.0,1.94683,0.00046,406.255,0.027,0.0782,0.0015,140.000,45.000,31716.70919,1.94836,406.638,36.954,45.071,45.000,0.00,0.07,-272.87,-272.91,-7,535,-946,22.2,2.4,-27.4,22.6,2.5,-26.9,0.45,2.05,-13.4,28.7
2016-11-23 01:23:00,0.0,1.94660,0.00043,406.245,0.030,0.0792,0.0017,140.001,45.000,31716.71014,1.94815,406.633,36.939,45.071,45.000,0.00,0.07,-272.87,-272.91,-9,535,-946,22.2,2.4,-27.3,22.6,2.5,-26.8,0.45,1.71,-13.4,28.7
2016-11-23 01:24:00,0.0,1.94544,0.00048,406.214,0.038,0.0793,0.0016,139.998,45.000,31718.15135,1.94697,406.600,36.935,45.071,45.000,0.00,0.07,-272.88,-272.92,-7,535,-946,22.2,2.5,-27.2,22.6,2.5,-26.8,0.45,2.07,-13.4,28.7
2016-11-23 01:25:00,0.0,1.94518,0.00044,406.192,0.031,0.0794,0.0016,140.000,45.000,31719.11305,1.94671,406.581,36.937,45.071,45.000,0.00,0.07,-272.87,-272.91,-9,535,-946,22.2,2.4,-27.3,22.7,2.5,-26.7,0.45,1.76,-13.4,28.7
2016-11-23 01:26:00,0.0,1.94512,0.00033,406.245,0.037,0.0799,0.0019,140.002,45.000,31719.61256,1.94666,406.636,36.937,45.071,45.000,0.00,0.07,-272.88,-272.92,-7,535,-946,22.2,2.5,-27.1,22.6,2.5,-26.7,0.45,1.97,-13.4,28.7
2016-11-23 01:27:00,0.0,1.94521,0.00043,406.223,0.030,0.0810,0.0016,140.002,45.000,31720.92833,1.94676,406.617,36.941,45.071,45.000,0.00,0.07,-272.89,-272.92,-9,535,-946,22.2,2.5,-27.0,22.6,2.5,-26.7,0.45,1.91,-13.4,28.7
2016-11-23 01:28:00,0.0,1.94559,0.00053,406.281,0.026,0.0793,0.0017,139.999,45.000,31718.75583,1.94708,406.669,36.983,45.071,45.000,0.00,0.07,-272.87,-272.92,-7,535,-946,22.2,2.4,-27.2,22.6,2.5,-26.7,0.45,1.80,-13.4,28.7
2016-11-23 01:29:00,0.0,1.94591,0.00031,406.235,0.033,0.0782,0.0015,139.999,45.000,31718.64126,1.94742,406.618,36.997,45.071,45.000,0.00,0.07,-272.88,-272.90,-9,535,-946,22.2,2.4,-27.4,22.6,2.5,-26.8,0.45,2.05,-13.4,28.7
2016-11-23 01:30:00,0.0,1.94562,0.00036,406.248,0.031,0.0772,0.0015,139.999,45.000,31716.52495,1.94712,406.625,36.992,45.071,45.000,0.00,0.07,-272.88,-272.91,-7,535,-946,22.2,2.4,-27.5,22.6,2.5,-26.9,0.45,1.72,-13.4,28.7
2016-11-23 01:31:00,0.0,1.94533,0.00026,406.240,0.035,0.0777,0.0013,139.997,45.000,31714.56038,1.94681,406.620,36.948,45.071,45.000,0.00,0.07,-272.88,-272.91,-9,535,-946,22.2,2.4,-27.5,22.7,2.4,-27.0,0.45,2.07,-13.4,28.7
2016-11-23 01:32:00,0.0,1.94514,0.00040,406.194,0.035,0.0782,0.0014,139.999,45.000,31715.60466,1.94665,406.577,36.936,45.071,45.000,0.00,0.07,-272.87,-272.91,-8,535,-946,22.2,2.4,-27.3,22.7,2.5,-26.9,0.45,1.77,-13.4,28.7
2016-11-23 01:33:00,0.0,1.94486,0.00034,406.172,0.028,0.0796,0.0015,139.999,45.000,31716.96342,1.94638,406.561,36.920,45.071,45.000,0.00,0.07,-272.87,-272.91,-9,535,-946,22.2,2.5,-27.2,22.7,2.5,-26.8,0.45,1.95,-13.4,28.8
2016-11-23 01:34:00,0.0,1.94448,0.00033,406.184,0.025,0.0810,0.0018,139.996,45.000,31717.35365,1.94605,406.580,36.922,45.071,45.000,0.00,0.07,-272.88,-272.91,-8,535,-946,22.2,2.5,-27.0,22.6,2.5,-26.6,0.45,1.92,-13.4,28.8
2016-11-23 01:35:00,0.0,1.94470,0.00042,406.183,0.033,0.0830,0.0013,140.000,45.000,31717.20338,1.94624,406.589,36.892,45.071,45.000,0.00,0.07,-272.87,-272.91,-8,535,-946,22.2,2.5,-26.8,22.6,2.6,-26.5,0.45,1.79,-13.4,28.7
2016-11-23 01:36:00,0.0,1.94470,0.00037,406.164,0.034,0.0830,0.0014,140.000,45.000,31717.31965,1.94633,406.571,36.899,45.071,45.000,0.00,0.07,-272.88,-272.91,-8,535,-946,22.2,2.6,-26.7,22.6,2.6,-26.3,0.45,2.06,-13.4,28.7
2016-11-23 01:37:00,0.0,1.94443,0.00037,406.154,0.026,0.0837,0.0019,140.000,45.000,31718.99834,1.94603,406.563,36.914,45.071,45.000,0.00,0.07,-272.87,-272.92,-8,535,-946,22.2,2.6,-26.7,22.6,2.6,-26.3,0.45,1.71,-13.4,28.7
2016-11-23 01:38:00,0.0,1.94418,0.00034,406.153,0.024,0.0836,0.0018,140.000,45.000,31718.54724,1.94579,406.562,36.938,45.071,45.000,0.00,0.07,-272.88,-272.92,-8,535,-946,22.2,2.6,-26.7,22.6,2.6,-26.3,0.45,2.07,-13.4,28.7
2016-11-23 01:39:00,0.0,1.94449,0.00042,406.187,0.031,0.0839,0.0020,140.003,45.000,31716.33043,1.94610,406.596,36.952,45.071,45.000,0.00,0.07,-272.87,-272.90,-8,535,-946,22.2,2.6,-26.7,22.6,2.6,-26.3,0.45,1.78,-13.4,28.7
2016-11-23 01:40:00,0.0,1.94456,0.00036,406.186,0.035,0.0831,0.0014,140.002,45.000,31715.41388,1.94617,406.591,36.964,45.071,45.000,0.00,0.07,-272.88,-272.91,-8,535,-946,22.2,2.6,-26.7,22.6,2.6,-26.3,0.45,1.93,-13.4,28.7
2016-11-23 01:41:00,0.0,1.94431,0.00037,406.177,0.032,0.0819,0.0016,140.001,45.000,31717.88998,1.94585,406.579,36.964,45.071,45.000,0.00,0.07,-272.88,-272.91,-8,535,-946,22.2,2.5,-26.9,22.6,2.6,-26.4,0.45,1.95,-13.4,28.7
2016-11-23 01:42:00,0.0,1.94431,0.00030,406.160,0.034,0.0815,0.0017,140.001,45.000,31718.02446,1.94589,406.558,36.941,45.071,45.000,0.00,0.07,-272.87,-272.91,-8,535,-946,22.2,2.5,-26.9,22.6,2.6,-26.4,0.45,1.77,-13.4,28.7
2016-11-23 01:43:00,0.0,1.94448,0.00042,406.178,0.027,0.0821,0.0014,140.001,45.000,31716.53292,1.94603,406.579,36.929,45.071,45.000,0.00,0.07,-272.88,-272.91,-8,535,-946,22.2,2.5,-26.8,22.7,2.6,-26.4,0.45,2.07,-13.4,28.7
2016-11-23 01:44:00,0.0,1.94468,0.00033,406.172,0.040,0.0837,0.0018,140.000,45.000,31716.13431,1.94629,406.582,36.928,45.071,45.000,0.00,0.07,-272.88,-272.92,-9,535,-946,22.2,2.6,-26.7,22.6,2.6,-26.3,0.45,1.72,-13.4,28.7